TimeHST,TemperatureF,Dew PointF,Humidity,Sea Level PressureIn,VisibilityMPH,Wind Direction,Wind SpeedMPH,Gust SpeedMPH,PrecipitationIn,Events,Conditions,WindDirDegrees,DateUTC
12:16 AM,35.6,-13.0,12,30.09,10.0,East,15.0,19.6,N/A,,Clear,100,2012-11-30 10:16:00
12:36 AM,37.4,-13.0,11,30.10,10.0,ESE,15.0,-,N/A,,Clear,110,2012-11-30 10:36:00
12:56 AM,37.4,-13.0,11,30.10,10.0,ESE,11.5,-,N/A,,Clear,110,2012-11-30 10:56:00
1:16 AM,37.4,-11.2,12,30.10,10.0,East,11.5,-,N/A,,Clear,100,2012-11-30 11:16:00
1:36 AM,37.4,-11.2,12,30.10,10.0,ESE,12.7,-,N/A,,Clear,110,2012-11-30 11:36:00
1:56 AM,37.4,-11.2,12,30.11,10.0,ESE,13.8,-,N/A,,Clear,110,2012-11-30 11:56:00
2:16 AM,37.4,-11.2,12,30.11,10.0,East,3.5,-,N/A,,Clear,100,2012-11-30 12:16:00
2:36 AM,33.8,-14.8,12,30.11,10.0,ENE,3.5,-,N/A,,Clear,60,2012-11-30 12:36:00
2:56 AM,33.8,-14.8,12,30.11,10.0,East,5.8,-,N/A,,Clear,80,2012-11-30 12:56:00
3:16 AM,35.6,-14.8,11,30.11,10.0,ESE,12.7,-,N/A,,Clear,110,2012-11-30 13:16:00
3:36 AM,37.4,-11.2,12,30.11,10.0,ESE,13.8,-,N/A,,Clear,110,2012-11-30 13:36:00
3:56 AM,37.4,-11.2,12,30.11,10.0,ESE,16.1,-,N/A,,Clear,120,2012-11-30 13:56:00
4:16 AM,37.4,-11.2,12,30.10,10.0,ESE,17.3,-,N/A,,Clear,120,2012-11-30 14:16:00
4:36 AM,37.4,-11.2,12,30.09,10.0,SE,13.8,-,N/A,,Clear,130,2012-11-30 14:36:00
4:56 AM,37.4,-11.2,12,30.09,10.0,ESE,5.8,-,N/A,,Clear,120,2012-11-30 14:56:00
5:16 AM,35.6,-13.0,12,30.09,10.0,Calm,Calm,-,N/A,,Clear,0,2012-11-30 15:16:00
5:36 AM,32.0,-16.6,12,30.08,10.0,WNW,5.8,-,N/A,,Clear,300,2012-11-30 15:36:00
5:56 AM,33.8,-14.8,12,30.08,10.0,WSW,11.5,-,N/A,,Clear,250,2012-11-30 15:56:00
6:16 AM,32.0,-16.6,12,30.09,10.0,Calm,Calm,-,N/A,,Clear,0,2012-11-30 16:16:00
6:36 AM,30.2,-16.6,13,30.09,10.0,SSW,6.9,-,N/A,,Clear,210,2012-11-30 16:36:00
6:56 AM,30.2,-16.6,13,30.09,10.0,South,4.6,-,N/A,,Clear,190,2012-11-30 16:56:00
7:16 AM,30.2,-16.6,13,30.08,10.0,South,6.9,-,N/A,,Clear,180,2012-11-30 17:16:00
7:36 AM,30.2,-16.6,13,30.09,10.0,Calm,Calm,-,N/A,,Clear,0,2012-11-30 17:36:00
7:56 AM,28.4,-18.4,12,30.09,10.0,Calm,Calm,-,N/A,,Clear,0,2012-11-30 17:56:00
8:16 AM,30.2,-16.6,13,30.09,10.0,SE,8.1,-,N/A,,Clear,130,2012-11-30 18:16:00
8:36 AM,35.6,-14.8,11,30.10,10.0,South,9.2,-,N/A,,Clear,170,2012-11-30 18:36:00
8:56 AM,33.8,-14.8,12,30.11,10.0,North,3.5,-,N/A,,Clear,350,2012-11-30 18:56:00
9:16 AM,33.8,-14.8,12,30.10,10.0,East,8.1,-,N/A,,Clear,100,2012-11-30 19:16:00
9:36 AM,35.6,-14.8,11,30.10,10.0,SSE,10.4,-,N/A,,Clear,150,2012-11-30 19:36:00
9:56 AM,33.8,-14.8,12,30.11,10.0,South,4.6,-,N/A,,Clear,170,2012-11-30 19:56:00
10:16 AM,35.6,-14.8,11,30.11,10.0,NE,5.8,21.9,N/A,,Clear,50,2012-11-30 20:16:00
10:36 AM,33.8,-14.8,12,30.11,10.0,SSE,5.8,-,N/A,,Clear,150,2012-11-30 20:36:00
10:56 AM,35.6,-14.8,11,30.11,10.0,East,9.2,-,N/A,,Clear,100,2012-11-30 20:56:00
11:16 AM,37.4,-11.2,12,30.12,10.0,ESE,17.3,-,N/A,,Clear,110,2012-11-30 21:16:00
11:36 AM,39.2,-11.2,11,30.12,10.0,ESE,17.3,21.9,N/A,,Clear,110,2012-11-30 21:36:00
11:56 AM,39.2,-9.4,12,30.12,10.0,NNE,5.8,-,N/A,,Clear,20,2012-11-30 21:56:00
12:16 PM,41.0,-9.4,12,30.12,10.0,Calm,Calm,-,N/A,,Clear,0,2012-11-30 22:16:00
12:36 PM,41.0,-9.4,12,30.11,10.0,East,21.9,25.3,N/A,,Clear,80,2012-11-30 22:36:00
12:56 PM,41.0,-9.4,12,30.11,10.0,East,16.1,23.0,N/A,,Clear,90,2012-11-30 22:56:00
1:16 PM,41.0,-9.4,12,30.11,10.0,East,16.1,-,N/A,,Clear,100,2012-11-30 23:16:00
1:36 PM,41.0,-9.4,12,30.10,10.0,East,15.0,25.3,N/A,,Clear,100,2012-11-30 23:36:00
1:56 PM,42.8,-9.4,11,30.11,10.0,East,5.8,-,N/A,,Clear,90,2012-11-30 23:56:00
2:16 PM,44.6,-7.6,11,30.11,10.0,Calm,Calm,-,N/A,,Clear,0,2012-12-01 00:16:00
2:36 PM,44.6,-7.6,11,30.10,10.0,Calm,Calm,-,N/A,,Clear,0,2012-12-01 00:36:00
2:56 PM,44.6,-7.6,11,30.10,10.0,ESE,8.1,-,N/A,,Clear,110,2012-12-01 00:56:00
3:16 PM,42.8,-9.4,11,30.10,10.0,East,11.5,19.6,N/A,,Clear,100,2012-12-01 01:16:00
3:36 PM,41.0,-9.4,12,30.11,10.0,ESE,11.5,19.6,N/A,,Clear,110,2012-12-01 01:36:00
3:56 PM,39.2,-9.4,12,30.11,10.0,ESE,15.0,-,N/A,,Clear,110,2012-12-01 01:56:00
4:16 PM,39.2,-9.4,12,30.12,10.0,East,12.7,19.6,N/A,,Clear,90,2012-12-01 02:16:00
4:36 PM,37.4,-11.2,12,30.12,10.0,East,10.4,18.4,N/A,,Clear,90,2012-12-01 02:36:00
4:56 PM,37.4,-11.2,12,30.13,10.0,Calm,Calm,-,N/A,,Clear,0,2012-12-01 02:56:00
5:16 PM,33.8,-14.8,12,30.14,10.0,Calm,Calm,-,N/A,,Clear,0,2012-12-01 03:16:00
5:36 PM,33.8,-14.8,12,30.15,10.0,Calm,Calm,-,N/A,,Clear,0,2012-12-01 03:36:00
5:56 PM,32.0,-16.6,12,30.15,10.0,South,4.6,-,N/A,,Clear,170,2012-12-01 03:56:00
6:16 PM,33.8,-14.8,12,30.15,10.0,South,5.8,-,N/A,,Clear,170,2012-12-01 04:16:00
6:36 PM,33.8,-14.8,12,30.16,10.0,SSE,5.8,-,N/A,,Clear,160,2012-12-01 04:36:00
7:16 PM,33.8,-14.8,12,30.17,9.0,Calm,Calm,-,N/A,,Clear,0,2012-12-01 05:16:00
7:36 PM,30.2,-16.6,13,30.17,10.0,South,4.6,-,N/A,,Clear,190,2012-12-01 05:36:00
7:56 PM,30.2,-16.6,13,30.18,9.0,SSE,5.8,-,N/A,,Clear,160,2012-12-01 05:56:00
8:16 PM,30.2,-16.6,13,30.18,10.0,Calm,Calm,-,N/A,,Clear,0,2012-12-01 06:16:00
8:36 PM,28.4,-18.4,12,30.18,10.0,Calm,Calm,-,N/A,,Clear,0,2012-12-01 06:36:00
8:56 PM,28.4,-18.4,12,30.18,9.0,Calm,Calm,-,N/A,,Clear,0,2012-12-01 06:56:00
9:16 PM,28.4,-18.4,12,30.18,9.0,Calm,Calm,-,N/A,,Scattered Clouds,0,2012-12-01 07:16:00
9:36 PM,28.4,-18.4,12,30.17,6.0,Calm,Calm,-,N/A,,Scattered Clouds,0,2012-12-01 07:36:00
9:56 PM,28.4,-18.4,12,30.17,7.0,Calm,Calm,-,N/A,,Clear,0,2012-12-01 07:56:00
10:16 PM,30.2,-18.4,11,30.17,10.0,East,5.8,-,N/A,,Clear,100,2012-12-01 08:16:00
10:36 PM,30.2,-16.6,13,30.18,10.0,SE,4.6,-,N/A,,Clear,130,2012-12-01 08:36:00
10:56 PM,28.4,-18.4,12,30.19,10.0,Calm,Calm,-,N/A,,Clear,0,2012-12-01 08:56:00
11:16 PM,26.6,-18.4,13,30.19,10.0,Calm,Calm,-,N/A,,Clear,0,2012-12-01 09:16:00
11:36 PM,26.6,-18.4,13,30.20,10.0,North,4.6,-,N/A,,Clear,360,2012-12-01 09:36:00
11:56 PM,26.6,-20.2,12,30.21,9.0,Calm,Calm,-,N/A,,Clear,0,2012-12-01 09:56:00